Regional Weather Roundup
Issued by NWS

Home | Current Version | Previous Version | Text Only | Print | Product List | Glossary On
Versions: 1 2 3 4 5 6 7 8 9 10 11 12 13 14 15 16 17 18 19 20 21 22 23 24 25 26 27 28 29 30 31 32 33 34 35 36 37 38 39 40 41 42 43 44 45 46 47 48 49 50
000
ASCA44 KEWX 210820
RWRMX

LATIN AMERICA AND CARIBBEAN REGIONAL WEATHER ROUNDUP
NATIONAL WEATHER SERVICE AUSTIN/SAN ANTONIO TX
300 AM CDT MON APR 21 2014

NOTE: "FAIR" INDICATED FEW OR NO CLOUDS BELOW 12,000 FEET WITH NO
SIGNIFICANT WEATHER AND/OR OBSTRUCTIONS TO VISIBILITY.

BAJA CALIFORNIA

CITY           SKY/WX    TMP DP  RH WIND       PRES   REMARKS
TIJUANA        CLEAR     57  54  88 CALM      30.08F

NORTHWESTERN MEXICO

CITY           SKY/WX    TMP DP  RH WIND       PRES   REMARKS

NORTHEASTERN MEXICO

CITY           SKY/WX    TMP DP  RH WIND       PRES   REMARKS
MONTERREY      DRIZZLE   68  66  94 CALM      29.99S

WESTERN MEXICO

CITY           SKY/WX    TMP DP  RH WIND       PRES   REMARKS
DEL BAJIO      MOCLDY    64  45  48 E7        30.27S
GUADALAJARA    CLEAR     64  45  48 SW7       30.20S
MAZATLAN       CLEAR     63  57  82 N14       29.91F
ZACATECAS      PTCLDY    59  34  38 W5        30.32F

CENTRAL MEXICO

CITY           SKY/WX    TMP DP  RH WIND       PRES   REMARKS
MEXICO CITY    CLEAR     63  36  36 NW6       30.36S
MORELIA        PTCLDY    54  52  94 CALM      30.26F
QUERETARO      MOCLDY    59  41  51 CALM      30.33R
S. LUIS POTOSI MOCLDY    55  46  71 CALM      30.25F
TOLUCA         MOCLDY    48  39  71 CALM      30.43S

SOUTHERN MEXICO

CITY           SKY/WX    TMP DP  RH WIND       PRES   REMARKS
ACAPULCO       PTCLDY    82  73  74 SW3       29.92F

YUCATAN PENINSULA

CITY           SKY/WX    TMP DP  RH WIND       PRES   REMARKS
CANCUN         PTCLDY    64  64 100 CALM      30.02F
COZUMEL        CLEAR     63  61  94 CALM      30.02F
MERIDA         CLEAR     73  61  64 E8        30.03F
TAPACHULA      CLEAR     81  75  83 CALM      29.92F

CENTRAL AMERICA

CITY           SKY/WX    TMP DP  RH WIND       PRES   REMARKS

CARIBBEAN

CITY           SKY/WX    TMP DP  RH WIND       PRES   REMARKS
ARUBA          PTCLDY    79  73  83 E21       29.86S
KINGSTON       PTCLDY   N/A N/A N/A N6        29.92S
NASSAU           N/A     73  64  73 NW5       29.96F
SAN JUAN       PTCLDY    75  70  83 CALM      29.99S
SANTO DOMINGO  PTCLDY    73  70  88 CALM      29.97F
ST. CROIX      PTCLDY    79  70  73 E13       30.00S
ST. THOMAS     MOCLDY    75  72  88 E8        29.99F

$$




USA.gov is the U.S. government's official web portal to all federal, state and local government web resources and services.